owner,sensor,date,latitude,longitude,vertical_datum,wind_speed,wind_to_direction,wind_speed_of_gust,qcFlag 
WAVCIS,ioos:station:WAVCIS:CSI06:1,2008-08-01T00:00:00Z,28.8667,-90.4833,10.0,0.47,77.0,,'11111222,11111222,99999999' 
WAVCIS,ioos:station:WAVCIS:CSI06:1,2008-08-01T01:00:00Z,28.8667,-90.4833,10.0,3.57,36.0,,'11111222,11111222,99999999' 
WAVCIS,ioos:station:WAVCIS:CSI06:1,2008-08-01T02:00:00Z,28.8667,-90.4833,10.0,0.607,40.0,,'11111222,11111222,99999999' 
WAVCIS,ioos:station:WAVCIS:CSI06:1,2008-08-01T03:00:00Z,28.8667,-90.4833,10.0,1.643,59.0,,'11111222,11111222,99999999' 
WAVCIS,ioos:station:WAVCIS:CSI06:1,2008-08-01T04:00:00Z,28.8667,-90.4833,10.0,0.175,61.0,,'11111222,11111222,99999999' 
WAVCIS,ioos:station:WAVCIS:CSI06:1,2008-08-01T05:00:00Z,28.8667,-90.4833,10.0,1.378,139.0,,'11111222,11111222,99999999' 
WAVCIS,ioos:station:WAVCIS:CSI06:1,2008-08-01T06:00:00Z,28.8667,-90.4833,10.0,5.66,136.0,,'11111222,11111222,99999999' 
WAVCIS,ioos:station:WAVCIS:CSI06:1,2008-08-01T07:00:00Z,28.8667,-90.4833,10.0,7.45,136.0,,'11111222,11111222,99999999' 
WAVCIS,ioos:station:WAVCIS:CSI06:1,2008-08-01T08:00:00Z,28.8667,-90.4833,10.0,7.27,140.0,,'11111222,11111222,99999999' 
WAVCIS,ioos:station:WAVCIS:CSI06:1,2008-08-01T09:00:00Z,28.8667,-90.4833,10.0,7.13,125.0,,'11111222,11111222,99999999' 
WAVCIS,ioos:station:WAVCIS:CSI06:1,2008-08-01T10:00:00Z,28.8667,-90.4833,10.0,6.139,121.0,,'11111222,11111222,99999999' 
WAVCIS,ioos:station:WAVCIS:CSI06:1,2008-08-01T11:00:00Z,28.8667,-90.4833,10.0,6.009,119.0,,'11111222,11111222,99999999' 
WAVCIS,ioos:station:WAVCIS:CSI06:1,2008-08-01T12:00:00Z,28.8667,-90.4833,10.0,7.61,123.0,,'11111222,11111222,99999999' 
WAVCIS,ioos:station:WAVCIS:CSI06:1,2008-08-01T13:00:00Z,28.8667,-90.4833,10.0,7.4,124.0,,'11111222,11111222,99999999' 
WAVCIS,ioos:station:WAVCIS:CSI06:1,2008-08-01T14:00:00Z,28.8667,-90.4833,10.0,7.41,119.0,,'11111222,11111222,99999999' 
WAVCIS,ioos:station:WAVCIS:CSI06:1,2008-08-01T15:00:00Z,28.8667,-90.4833,10.0,7.31,118.0,,'11111222,11111222,99999999' 
WAVCIS,ioos:station:WAVCIS:CSI06:1,2008-08-01T16:00:00Z,28.8667,-90.4833,10.0,7.74,120.0,,'11111222,11111222,99999999' 
WAVCIS,ioos:station:WAVCIS:CSI06:1,2008-08-01T17:00:00Z,28.8667,-90.4833,10.0,7.11,126.0,,'11111222,11111222,99999999' 
WAVCIS,ioos:station:WAVCIS:CSI06:1,2008-08-01T18:00:00Z,28.8667,-90.4833,10.0,7.55,120.0,,'11111222,11111222,99999999' 
WAVCIS,ioos:station:WAVCIS:CSI06:1,2008-08-01T19:00:00Z,28.8667,-90.4833,10.0,7.1,117.0,,'11111222,11111222,99999999' 
WAVCIS,ioos:station:WAVCIS:CSI06:1,2008-08-01T20:00:00Z,28.8667,-90.4833,10.0,7.64,106.0,,'11111222,11111222,99999999' 
WAVCIS,ioos:station:WAVCIS:CSI06:1,2008-08-01T21:00:00Z,28.8667,-90.4833,10.0,2.728,34.0,,'11111222,11111222,99999999' 
WAVCIS,ioos:station:WAVCIS:CSI06:1,2008-08-01T22:00:00Z,28.8667,-90.4833,10.0,1.112,12.0,,'11111222,11111222,99999999' 
WAVCIS,ioos:station:WAVCIS:CSI06:1,2008-08-01T23:00:00Z,28.8667,-90.4833,10.0,1.929,309.0,,'11111222,11111222,99999999' 
WAVCIS,ioos:station:WAVCIS:CSI06:1,2008-08-02T00:00:00Z,28.8667,-90.4833,10.0,0.923,84.0,,'11111222,11111222,99999999' 
WAVCIS,ioos:station:WAVCIS:CSI06:1,2008-08-02T01:00:00Z,28.8667,-90.4833,10.0,2.156,136.0,,'11111222,11111222,99999999' 
WAVCIS,ioos:station:WAVCIS:CSI06:1,2008-08-02T02:00:00Z,28.8667,-90.4833,10.0,3.453,175.0,,'11111222,11111222,99999999' 
WAVCIS,ioos:station:WAVCIS:CSI06:1,2008-08-02T03:00:00Z,28.8667,-90.4833,10.0,4.38,188.0,,'11111222,11111222,99999999' 
WAVCIS,ioos:station:WAVCIS:CSI06:1,2008-08-02T04:00:00Z,28.8667,-90.4833,10.0,5.628,173.0,,'11111222,11111222,99999999' 
WAVCIS,ioos:station:WAVCIS:CSI06:1,2008-08-02T05:00:00Z,28.8667,-90.4833,10.0,4.854,168.0,,'11111222,11111222,99999999' 
WAVCIS,ioos:station:WAVCIS:CSI06:1,2008-08-02T06:00:00Z,28.8667,-90.4833,10.0,6.238,124.0,,'11111222,11111222,99999999' 
WAVCIS,ioos:station:WAVCIS:CSI06:1,2008-08-02T07:00:00Z,28.8667,-90.4833,10.0,6.88,114.0,,'11111222,11111222,99999999' 
WAVCIS,ioos:station:WAVCIS:CSI06:1,2008-08-02T08:00:00Z,28.8667,-90.4833,10.0,6.349,108.0,,'11111222,11111222,99999999' 
WAVCIS,ioos:station:WAVCIS:CSI06:1,2008-08-02T09:00:00Z,28.8667,-90.4833,10.0,6.425,108.0,,'11111222,11111222,99999999' 
WAVCIS,ioos:station:WAVCIS:CSI06:1,2008-08-02T10:00:00Z,28.8667,-90.4833,10.0,6.541,101.0,,'11111222,11111222,99999999' 
WAVCIS,ioos:station:WAVCIS:CSI06:1,2008-08-02T11:00:00Z,28.8667,-90.4833,10.0,9.74,70.0,,'11111222,11111222,99999999' 
WAVCIS,ioos:station:WAVCIS:CSI06:1,2008-08-02T12:00:00Z,28.8667,-90.4833,10.0,3.306,58.0,,'11111222,11111222,99999999' 
WAVCIS,ioos:station:WAVCIS:CSI06:1,2008-08-02T13:00:00Z,28.8667,-90.4833,10.0,11.66,83.0,,'11111222,11111222,99999999' 
WAVCIS,ioos:station:WAVCIS:CSI06:1,2008-08-02T14:00:00Z,28.8667,-90.4833,10.0,3.391,115.0,,'11111222,11111222,99999999' 
WAVCIS,ioos:station:WAVCIS:CSI06:1,2008-08-02T15:00:00Z,28.8667,-90.4833,10.0,9.62,47.0,,'11111222,11111222,99999999' 
WAVCIS,ioos:station:WAVCIS:CSI06:1,2008-08-02T16:00:00Z,28.8667,-90.4833,10.0,11.4,46.0,,'11111222,11111222,99999999' 
WAVCIS,ioos:station:WAVCIS:CSI06:1,2008-08-02T17:00:00Z,28.8667,-90.4833,10.0,5.439,58.0,,'11111222,11111222,99999999' 
WAVCIS,ioos:station:WAVCIS:CSI06:1,2008-08-02T18:00:00Z,28.8667,-90.4833,10.0,6.048,97.0,,'11111222,11111222,99999999' 
WAVCIS,ioos:station:WAVCIS:CSI06:1,2008-08-02T19:00:00Z,28.8667,-90.4833,10.0,5.704,101.0,,'11111222,11111222,99999999' 
WAVCIS,ioos:station:WAVCIS:CSI06:1,2008-08-02T20:00:00Z,28.8667,-90.4833,10.0,4.661,113.0,,'11111222,11111222,99999999' 
WAVCIS,ioos:station:WAVCIS:CSI06:1,2008-08-02T21:00:00Z,28.8667,-90.4833,10.0,5.743,114.0,,'11111222,11111222,99999999' 
WAVCIS,ioos:station:WAVCIS:CSI06:1,2008-08-02T22:00:00Z,28.8667,-90.4833,10.0,6.201,110.0,,'11111222,11111222,99999999' 
WAVCIS,ioos:station:WAVCIS:CSI06:1,2008-08-02T23:00:00Z,28.8667,-90.4833,10.0,6.355,111.0,,'11111222,11111222,99999999' 
WAVCIS,ioos:station:WAVCIS:CSI06:1,2008-08-03T00:00:00Z,28.8667,-90.4833,10.0,6.569,112.0,,'11111222,11111222,99999999' 
WAVCIS,ioos:station:WAVCIS:CSI06:1,2008-08-03T01:00:00Z,28.8667,-90.4833,10.0,6.932,111.0,,'11111222,11111222,99999999' 
WAVCIS,ioos:station:WAVCIS:CSI06:1,2008-08-03T02:00:00Z,28.8667,-90.4833,10.0,7.07,103.0,,'11111222,11111222,99999999' 
WAVCIS,ioos:station:WAVCIS:CSI06:1,2008-08-03T03:00:00Z,28.8667,-90.4833,10.0,6.969,104.0,,'11111222,11111222,99999999' 
WAVCIS,ioos:station:WAVCIS:CSI06:1,2008-08-03T04:00:00Z,28.8667,-90.4833,10.0,7.48,103.0,,'11111222,11111222,99999999' 
WAVCIS,ioos:station:WAVCIS:CSI06:1,2008-08-03T05:00:00Z,28.8667,-90.4833,10.0,7.1,92.0,,'11111222,11111222,99999999' 
WAVCIS,ioos:station:WAVCIS:CSI06:1,2008-08-03T06:00:00Z,28.8667,-90.4833,10.0,7.44,88.0,,'11111222,11111222,99999999' 
WAVCIS,ioos:station:WAVCIS:CSI06:1,2008-08-03T07:00:00Z,28.8667,-90.4833,10.0,6.408,78.0,,'11111222,11111222,99999999' 
WAVCIS,ioos:station:WAVCIS:CSI06:1,2008-08-03T08:00:00Z,28.8667,-90.4833,10.0,6.672,76.0,,'11111222,11111222,99999999' 
WAVCIS,ioos:station:WAVCIS:CSI06:1,2008-08-03T09:00:00Z,28.8667,-90.4833,10.0,8.12,63.0,,'11111222,11111222,99999999' 
WAVCIS,ioos:station:WAVCIS:CSI06:1,2008-08-03T10:00:00Z,28.8667,-90.4833,10.0,9.4,74.0,,'11111222,11111222,99999999' 
WAVCIS,ioos:station:WAVCIS:CSI06:1,2008-08-03T11:00:00Z,28.8667,-90.4833,10.0,8.71,68.0,,'11111222,11111222,99999999' 
WAVCIS,ioos:station:WAVCIS:CSI06:1,2008-08-03T12:00:00Z,28.8667,-90.4833,10.0,8.86,71.0,,'11111222,11111222,99999999' 
WAVCIS,ioos:station:WAVCIS:CSI06:1,2008-08-03T13:00:00Z,28.8667,-90.4833,10.0,7.64,64.0,,'11111222,11111222,99999999' 
WAVCIS,ioos:station:WAVCIS:CSI06:1,2008-08-03T14:00:00Z,28.8667,-90.4833,10.0,6.504,19.0,,'11111222,11111222,99999999' 
WAVCIS,ioos:station:WAVCIS:CSI06:1,2008-08-03T15:00:00Z,28.8667,-90.4833,10.0,2.756,355.0,,'11111222,11111222,99999999' 
WAVCIS,ioos:station:WAVCIS:CSI06:1,2008-08-03T16:00:00Z,28.8667,-90.4833,10.0,2.64,345.0,,'11111222,11111222,99999999' 
WAVCIS,ioos:station:WAVCIS:CSI06:1,2008-08-03T17:00:00Z,28.8667,-90.4833,10.0,1.208,322.0,,'11111222,11111222,99999999' 
WAVCIS,ioos:station:WAVCIS:CSI06:1,2008-08-03T18:00:00Z,28.8667,-90.4833,10.0,4.161,192.0,,'11111222,11111222,99999999' 
WAVCIS,ioos:station:WAVCIS:CSI06:1,2008-08-03T19:00:00Z,28.8667,-90.4833,10.0,2.337,143.0,,'11111222,11111222,99999999' 
WAVCIS,ioos:station:WAVCIS:CSI06:1,2008-08-03T20:00:00Z,28.8667,-90.4833,10.0,1.305,105.0,,'11111222,11111222,99999999' 
WAVCIS,ioos:station:WAVCIS:CSI06:1,2008-08-03T21:00:00Z,28.8667,-90.4833,10.0,1.767,66.0,,'11111222,11111222,99999999' 
WAVCIS,ioos:station:WAVCIS:CSI06:1,2008-08-03T22:00:00Z,28.8667,-90.4833,10.0,4.976,36.0,,'11111222,11111222,99999999' 
WAVCIS,ioos:station:WAVCIS:CSI06:1,2008-08-03T23:00:00Z,28.8667,-90.4833,10.0,6.736,340.0,,'11111222,11111222,99999999' 
WAVCIS,ioos:station:WAVCIS:CSI06:1,2008-08-04T00:00:00Z,28.8667,-90.4833,10.0,4.111,345.0,,'11111222,11111222,99999999' 
WAVCIS,ioos:station:WAVCIS:CSI06:1,2008-08-04T01:00:00Z,28.8667,-90.4833,10.0,8.89,299.0,,'11111222,11111222,99999999' 
WAVCIS,ioos:station:WAVCIS:CSI06:1,2008-08-04T02:00:00Z,28.8667,-90.4833,10.0,9.07,306.0,,'11111222,11111222,99999999' 
WAVCIS,ioos:station:WAVCIS:CSI06:1,2008-08-04T03:00:00Z,28.8667,-90.4833,10.0,9.46,305.0,,'11111222,11111222,99999999' 
WAVCIS,ioos:station:WAVCIS:CSI06:1,2008-08-04T04:00:00Z,28.8667,-90.4833,10.0,11.21,300.0,,'11111222,11111222,99999999' 
WAVCIS,ioos:station:WAVCIS:CSI06:1,2008-08-04T05:00:00Z,28.8667,-90.4833,10.0,11.79,296.0,,'11111222,11111222,99999999' 
WAVCIS,ioos:station:WAVCIS:CSI06:1,2008-08-04T06:00:00Z,28.8667,-90.4833,10.0,13.23,300.0,,'11111222,11111222,99999999' 
WAVCIS,ioos:station:WAVCIS:CSI06:1,2008-08-04T07:00:00Z,28.8667,-90.4833,10.0,13.95,292.0,,'11111222,11111222,99999999' 
WAVCIS,ioos:station:WAVCIS:CSI06:1,2008-08-04T08:00:00Z,28.8667,-90.4833,10.0,15.17,284.0,,'11111222,11111222,99999999' 
WAVCIS,ioos:station:WAVCIS:CSI06:1,2008-08-04T09:00:00Z,28.8667,-90.4833,10.0,14.49,287.0,,'11111222,11111222,99999999' 
WAVCIS,ioos:station:WAVCIS:CSI06:1,2008-08-04T10:00:00Z,28.8667,-90.4833,10.0,14.98,286.0,,'11111222,11111222,99999999' 
WAVCIS,ioos:station:WAVCIS:CSI06:1,2008-08-04T11:00:00Z,28.8667,-90.4833,10.0,12.01,285.0,,'11111222,11111222,99999999' 
WAVCIS,ioos:station:WAVCIS:CSI06:1,2008-08-04T12:00:00Z,28.8667,-90.4833,10.0,13.88,282.0,,'11111222,11111222,99999999' 
WAVCIS,ioos:station:WAVCIS:CSI06:1,2008-08-04T13:00:00Z,28.8667,-90.4833,10.0,12.54,288.0,,'11111222,11111222,99999999' 
WAVCIS,ioos:station:WAVCIS:CSI06:1,2008-08-04T14:00:00Z,28.8667,-90.4833,10.0,15.17,278.0,,'11111222,11111222,99999999' 
WAVCIS,ioos:station:WAVCIS:CSI06:1,2008-08-04T15:00:00Z,28.8667,-90.4833,10.0,16.96,257.0,,'11111222,11111222,99999999' 
WAVCIS,ioos:station:WAVCIS:CSI06:1,2008-08-04T16:00:00Z,28.8667,-90.4833,10.0,18.39,241.0,,'11111222,11111222,99999999' 
WAVCIS,ioos:station:WAVCIS:CSI06:1,2008-08-04T17:00:00Z,28.8667,-90.4833,10.0,20.15,242.0,,'11111222,11111222,99999999' 
WAVCIS,ioos:station:WAVCIS:CSI06:1,2008-08-04T18:00:00Z,28.8667,-90.4833,10.0,20.88,231.0,,'11111222,11111222,99999999' 
WAVCIS,ioos:station:WAVCIS:CSI06:1,2008-08-04T19:00:00Z,28.8667,-90.4833,10.0,20.3,225.0,,'11111222,11111222,99999999' 
WAVCIS,ioos:station:WAVCIS:CSI06:1,2008-08-04T20:00:00Z,28.8667,-90.4833,10.0,19.68,224.0,,'11111222,11111222,99999999' 
WAVCIS,ioos:station:WAVCIS:CSI06:1,2008-08-04T21:00:00Z,28.8667,-90.4833,10.0,18.99,222.0,,'11111222,11111222,99999999' 
WAVCIS,ioos:station:WAVCIS:CSI06:1,2008-08-07T15:00:00Z,28.8667,-90.4833,10.0,4.675,314.0,,'11111222,11111222,99999999' 
WAVCIS,ioos:station:WAVCIS:CSI06:1,2008-08-07T16:00:00Z,28.8667,-90.4833,10.0,4.079,316.0,,'11111222,11111222,99999999' 
WAVCIS,ioos:station:WAVCIS:CSI06:1,2008-08-07T17:00:00Z,28.8667,-90.4833,10.0,1.907,2.0,,'11111222,11111222,99999999' 
WAVCIS,ioos:station:WAVCIS:CSI06:1,2008-08-07T18:00:00Z,28.8667,-90.4833,10.0,1.817,314.0,,'11111222,11111222,99999999' 
WAVCIS,ioos:station:WAVCIS:CSI06:1,2008-08-07T19:00:00Z,28.8667,-90.4833,10.0,0.482,310.0,,'11111222,11111222,99999999' 
WAVCIS,ioos:station:WAVCIS:CSI06:1,2008-08-07T20:00:00Z,28.8667,-90.4833,10.0,1.186,297.0,,'11111222,11111222,99999999' 
WAVCIS,ioos:station:WAVCIS:CSI06:1,2008-08-07T21:00:00Z,28.8667,-90.4833,10.0,3.387,299.0,,'11111222,11111222,99999999' 
WAVCIS,ioos:station:WAVCIS:CSI06:1,2008-08-07T22:00:00Z,28.8667,-90.4833,10.0,4.488,300.0,,'11111222,11111222,99999999' 
WAVCIS,ioos:station:WAVCIS:CSI06:1,2008-08-07T23:00:00Z,28.8667,-90.4833,10.0,5.321,300.0,,'11111222,11111222,99999999' 
WAVCIS,ioos:station:WAVCIS:CSI06:1,2008-08-08T00:00:00Z,28.8667,-90.4833,10.0,5.766,302.0,,'11111222,11111222,99999999' 
WAVCIS,ioos:station:WAVCIS:CSI06:1,2008-08-08T01:00:00Z,28.8667,-90.4833,10.0,5.493,301.0,,'11111222,11111222,99999999' 
WAVCIS,ioos:station:WAVCIS:CSI06:1,2008-08-08T02:00:00Z,28.8667,-90.4833,10.0,6.231,302.0,,'11111222,11111222,99999999' 
WAVCIS,ioos:station:WAVCIS:CSI06:1,2008-08-08T03:00:00Z,28.8667,-90.4833,10.0,5.767,300.0,,'11111222,11111222,99999999' 
WAVCIS,ioos:station:WAVCIS:CSI06:1,2008-08-08T04:00:00Z,28.8667,-90.4833,10.0,6.298,303.0,,'11111222,11111222,99999999' 
WAVCIS,ioos:station:WAVCIS:CSI06:1,2008-08-08T05:00:00Z,28.8667,-90.4833,10.0,6.599,303.0,,'11111222,11111222,99999999' 
WAVCIS,ioos:station:WAVCIS:CSI06:1,2008-08-08T06:00:00Z,28.8667,-90.4833,10.0,5.983,304.0,,'11111222,11111222,99999999' 
WAVCIS,ioos:station:WAVCIS:CSI06:1,2008-08-08T07:00:00Z,28.8667,-90.4833,10.0,4.488,301.0,,'11111222,11111222,99999999' 
WAVCIS,ioos:station:WAVCIS:CSI06:1,2008-08-08T08:00:00Z,28.8667,-90.4833,10.0,4.73,299.0,,'11111222,11111222,99999999' 
WAVCIS,ioos:station:WAVCIS:CSI06:1,2008-08-08T09:00:00Z,28.8667,-90.4833,10.0,6.547,297.0,,'11111222,11111222,99999999' 
WAVCIS,ioos:station:WAVCIS:CSI06:1,2008-08-08T10:00:00Z,28.8667,-90.4833,10.0,7.8,307.0,,'11111222,11111222,99999999' 
WAVCIS,ioos:station:WAVCIS:CSI06:1,2008-08-08T11:00:00Z,28.8667,-90.4833,10.0,5.007,257.0,,'11111222,11111222,99999999' 
WAVCIS,ioos:station:WAVCIS:CSI06:1,2008-08-08T12:00:00Z,28.8667,-90.4833,10.0,5.956,299.0,,'11111222,11111222,99999999' 
WAVCIS,ioos:station:WAVCIS:CSI06:1,2008-08-08T13:00:00Z,28.8667,-90.4833,10.0,7.78,312.0,,'11111222,11111222,99999999' 
WAVCIS,ioos:station:WAVCIS:CSI06:1,2008-08-08T20:00:00Z,28.8667,-90.4833,10.0,9.99,313.0,,'11111222,11111222,99999999' 
WAVCIS,ioos:station:WAVCIS:CSI06:1,2008-08-11T16:00:00Z,28.8667,-90.4833,10.0,6.636,300.0,,'11111222,11111222,99999999' 
WAVCIS,ioos:station:WAVCIS:CSI06:1,2008-08-11T17:00:00Z,28.8667,-90.4833,10.0,6.412,299.0,,'11111222,11111222,99999999' 
WAVCIS,ioos:station:WAVCIS:CSI06:1,2008-08-11T18:00:00Z,28.8667,-90.4833,10.0,7.32,297.0,,'11111222,11111222,99999999' 
WAVCIS,ioos:station:WAVCIS:CSI06:1,2008-08-11T19:00:00Z,28.8667,-90.4833,10.0,7.14,297.0,,'11111222,11111222,99999999' 
WAVCIS,ioos:station:WAVCIS:CSI06:1,2008-08-11T20:00:00Z,28.8667,-90.4833,10.0,6.563,299.0,,'11111222,11111222,99999999' 
WAVCIS,ioos:station:WAVCIS:CSI06:1,2008-08-11T21:00:00Z,28.8667,-90.4833,10.0,6.299,298.0,,'11111222,11111222,99999999' 
WAVCIS,ioos:station:WAVCIS:CSI06:1,2008-08-11T22:00:00Z,28.8667,-90.4833,10.0,6.994,299.0,,'11111222,11111222,99999999' 
WAVCIS,ioos:station:WAVCIS:CSI06:1,2008-08-11T23:00:00Z,28.8667,-90.4833,10.0,6.405,297.0,,'11111222,11111222,99999999' 
WAVCIS,ioos:station:WAVCIS:CSI06:1,2008-08-12T00:00:00Z,28.8667,-90.4833,10.0,6.317,300.0,,'11111222,11111222,99999999' 
WAVCIS,ioos:station:WAVCIS:CSI06:1,2008-08-12T01:00:00Z,28.8667,-90.4833,10.0,5.76,294.0,,'11111222,11111222,99999999' 
WAVCIS,ioos:station:WAVCIS:CSI06:1,2008-08-12T02:00:00Z,28.8667,-90.4833,10.0,5.954,292.0,,'11111222,11111222,99999999' 
WAVCIS,ioos:station:WAVCIS:CSI06:1,2008-08-12T03:00:00Z,28.8667,-90.4833,10.0,7.25,294.0,,'11111222,11111222,99999999' 
WAVCIS,ioos:station:WAVCIS:CSI06:1,2008-08-12T04:00:00Z,28.8667,-90.4833,10.0,7.03,294.0,,'11111222,11111222,99999999' 
WAVCIS,ioos:station:WAVCIS:CSI06:1,2008-08-12T05:00:00Z,28.8667,-90.4833,10.0,7.18,292.0,,'11111222,11111222,99999999' 
WAVCIS,ioos:station:WAVCIS:CSI06:1,2008-08-12T06:00:00Z,28.8667,-90.4833,10.0,7.72,291.0,,'11111222,11111222,99999999' 
WAVCIS,ioos:station:WAVCIS:CSI06:1,2008-08-12T07:00:00Z,28.8667,-90.4833,10.0,7.71,289.0,,'11111222,11111222,99999999' 
WAVCIS,ioos:station:WAVCIS:CSI06:1,2008-08-12T09:00:00Z,28.8667,-90.4833,10.0,11.05,292.0,,'11111222,11111222,99999999' 
WAVCIS,ioos:station:WAVCIS:CSI06:1,2008-08-12T10:00:00Z,28.8667,-90.4833,10.0,10.83,294.0,,'11111222,11111222,99999999' 
WAVCIS,ioos:station:WAVCIS:CSI06:1,2008-08-12T11:00:00Z,28.8667,-90.4833,10.0,11.21,295.0,,'11111222,11111222,99999999' 
WAVCIS,ioos:station:WAVCIS:CSI06:1,2008-08-12T12:00:00Z,28.8667,-90.4833,10.0,10.37,297.0,,'11111222,11111222,99999999' 
WAVCIS,ioos:station:WAVCIS:CSI06:1,2008-08-12T13:00:00Z,28.8667,-90.4833,10.0,10.91,296.0,,'11111222,11111222,99999999' 
WAVCIS,ioos:station:WAVCIS:CSI06:1,2008-08-12T14:00:00Z,28.8667,-90.4833,10.0,10.16,296.0,,'11111222,11111222,99999999' 
WAVCIS,ioos:station:WAVCIS:CSI06:1,2008-08-12T15:00:00Z,28.8667,-90.4833,10.0,9.71,295.0,,'11111222,11111222,99999999' 
WAVCIS,ioos:station:WAVCIS:CSI06:1,2008-08-12T16:00:00Z,28.8667,-90.4833,10.0,10.93,295.0,,'11111222,11111222,99999999' 
WAVCIS,ioos:station:WAVCIS:CSI06:1,2008-08-12T17:00:00Z,28.8667,-90.4833,10.0,10.63,295.0,,'11111222,11111222,99999999' 
WAVCIS,ioos:station:WAVCIS:CSI06:1,2008-08-12T18:00:00Z,28.8667,-90.4833,10.0,11.44,298.0,,'11111222,11111222,99999999' 
WAVCIS,ioos:station:WAVCIS:CSI06:1,2008-08-12T19:00:00Z,28.8667,-90.4833,10.0,10.09,297.0,,'11111222,11111222,99999999' 
WAVCIS,ioos:station:WAVCIS:CSI06:1,2008-08-12T20:00:00Z,28.8667,-90.4833,10.0,10.28,298.0,,'11111222,11111222,99999999' 
WAVCIS,ioos:station:WAVCIS:CSI06:1,2008-08-12T21:00:00Z,28.8667,-90.4833,10.0,10.68,297.0,,'11111222,11111222,99999999' 
WAVCIS,ioos:station:WAVCIS:CSI06:1,2008-08-12T22:00:00Z,28.8667,-90.4833,10.0,10.68,297.0,,'11111222,11111222,99999999' 
WAVCIS,ioos:station:WAVCIS:CSI06:1,2008-08-12T23:00:00Z,28.8667,-90.4833,10.0,10.31,297.0,,'11111222,11111222,99999999' 
WAVCIS,ioos:station:WAVCIS:CSI06:1,2008-08-13T00:00:00Z,28.8667,-90.4833,10.0,9.01,297.0,,'11111222,11111222,99999999' 
WAVCIS,ioos:station:WAVCIS:CSI06:1,2008-08-13T01:00:00Z,28.8667,-90.4833,10.0,10.21,296.0,,'11111222,11111222,99999999' 
WAVCIS,ioos:station:WAVCIS:CSI06:1,2008-08-13T02:00:00Z,28.8667,-90.4833,10.0,10.99,295.0,,'11111222,11111222,99999999' 
WAVCIS,ioos:station:WAVCIS:CSI06:1,2008-08-13T03:00:00Z,28.8667,-90.4833,10.0,12.16,296.0,,'11111222,11111222,99999999' 
WAVCIS,ioos:station:WAVCIS:CSI06:1,2008-08-13T04:00:00Z,28.8667,-90.4833,10.0,11.18,296.0,,'11111222,11111222,99999999' 
WAVCIS,ioos:station:WAVCIS:CSI06:1,2008-08-13T05:00:00Z,28.8667,-90.4833,10.0,12.11,296.0,,'11111222,11111222,99999999' 
WAVCIS,ioos:station:WAVCIS:CSI06:1,2008-08-13T06:00:00Z,28.8667,-90.4833,10.0,12.12,295.0,,'11111222,11111222,99999999' 
WAVCIS,ioos:station:WAVCIS:CSI06:1,2008-08-13T07:00:00Z,28.8667,-90.4833,10.0,13.09,295.0,,'11111222,11111222,99999999' 
WAVCIS,ioos:station:WAVCIS:CSI06:1,2008-08-13T08:00:00Z,28.8667,-90.4833,10.0,14.06,294.0,,'11111222,11111222,99999999' 
WAVCIS,ioos:station:WAVCIS:CSI06:1,2008-08-13T09:00:00Z,28.8667,-90.4833,10.0,12.66,295.0,,'11111222,11111222,99999999' 
WAVCIS,ioos:station:WAVCIS:CSI06:1,2008-08-13T10:00:00Z,28.8667,-90.4833,10.0,11.67,297.0,,'11111222,11111222,99999999' 
WAVCIS,ioos:station:WAVCIS:CSI06:1,2008-08-13T11:00:00Z,28.8667,-90.4833,10.0,8.47,309.0,,'11111222,11111222,99999999' 
WAVCIS,ioos:station:WAVCIS:CSI06:1,2008-08-13T12:00:00Z,28.8667,-90.4833,10.0,12.5,301.0,,'11111222,11111222,99999999' 
WAVCIS,ioos:station:WAVCIS:CSI06:1,2008-08-13T13:00:00Z,28.8667,-90.4833,10.0,9.67,300.0,,'11111222,11111222,99999999' 
WAVCIS,ioos:station:WAVCIS:CSI06:1,2008-08-13T14:00:00Z,28.8667,-90.4833,10.0,8.69,296.0,,'11111222,11111222,99999999' 
WAVCIS,ioos:station:WAVCIS:CSI06:1,2008-08-13T15:00:00Z,28.8667,-90.4833,10.0,10.85,298.0,,'11111222,11111222,99999999' 
WAVCIS,ioos:station:WAVCIS:CSI06:1,2008-08-13T16:00:00Z,28.8667,-90.4833,10.0,10.9,305.0,,'11111222,11111222,99999999' 
WAVCIS,ioos:station:WAVCIS:CSI06:1,2008-08-13T17:00:00Z,28.8667,-90.4833,10.0,11.74,299.0,,'11111222,11111222,99999999' 
WAVCIS,ioos:station:WAVCIS:CSI06:1,2008-08-13T18:00:00Z,28.8667,-90.4833,10.0,10.54,298.0,,'11111222,11111222,99999999' 
WAVCIS,ioos:station:WAVCIS:CSI06:1,2008-08-13T19:00:00Z,28.8667,-90.4833,10.0,11.6,301.0,,'11111222,11111222,99999999' 
WAVCIS,ioos:station:WAVCIS:CSI06:1,2008-08-13T20:00:00Z,28.8667,-90.4833,10.0,11.7,302.0,,'11111222,11111222,99999999' 
WAVCIS,ioos:station:WAVCIS:CSI06:1,2008-08-13T21:00:00Z,28.8667,-90.4833,10.0,11.55,305.0,,'11111222,11111222,99999999' 
WAVCIS,ioos:station:WAVCIS:CSI06:1,2008-08-13T22:00:00Z,28.8667,-90.4833,10.0,9.11,304.0,,'11111222,11111222,99999999' 
WAVCIS,ioos:station:WAVCIS:CSI06:1,2008-08-13T23:00:00Z,28.8667,-90.4833,10.0,8.79,305.0,,'11111222,11111222,99999999' 
WAVCIS,ioos:station:WAVCIS:CSI06:1,2008-08-14T00:00:00Z,28.8667,-90.4833,10.0,8.03,305.0,,'11111222,11111222,99999999' 
WAVCIS,ioos:station:WAVCIS:CSI06:1,2008-08-14T01:00:00Z,28.8667,-90.4833,10.0,6.826,304.0,,'11111222,11111222,99999999' 
WAVCIS,ioos:station:WAVCIS:CSI06:1,2008-08-14T02:00:00Z,28.8667,-90.4833,10.0,6.139,303.0,,'11111222,11111222,99999999' 
WAVCIS,ioos:station:WAVCIS:CSI06:1,2008-08-14T03:00:00Z,28.8667,-90.4833,10.0,5.494,304.0,,'11111222,11111222,99999999' 
WAVCIS,ioos:station:WAVCIS:CSI06:1,2008-08-14T04:00:00Z,28.8667,-90.4833,10.0,5.028,303.0,,'11111222,11111222,99999999' 
WAVCIS,ioos:station:WAVCIS:CSI06:1,2008-08-14T05:00:00Z,28.8667,-90.4833,10.0,4.948,303.0,,'11111222,11111222,99999999' 
WAVCIS,ioos:station:WAVCIS:CSI06:1,2008-08-14T06:00:00Z,28.8667,-90.4833,10.0,5.125,300.0,,'11111222,11111222,99999999' 
WAVCIS,ioos:station:WAVCIS:CSI06:1,2008-08-14T07:00:00Z,28.8667,-90.4833,10.0,4.606,299.0,,'11111222,11111222,99999999' 
WAVCIS,ioos:station:WAVCIS:CSI06:1,2008-08-14T08:00:00Z,28.8667,-90.4833,10.0,5.486,300.0,,'11111222,11111222,99999999' 
WAVCIS,ioos:station:WAVCIS:CSI06:1,2008-08-14T09:00:00Z,28.8667,-90.4833,10.0,4.566,300.0,,'11111222,11111222,99999999' 
WAVCIS,ioos:station:WAVCIS:CSI06:1,2008-08-14T10:00:00Z,28.8667,-90.4833,10.0,3.993,300.0,,'11111222,11111222,99999999' 
WAVCIS,ioos:station:WAVCIS:CSI06:1,2008-08-14T11:00:00Z,28.8667,-90.4833,10.0,2.566,313.0,,'11111222,11111222,99999999' 
WAVCIS,ioos:station:WAVCIS:CSI06:1,2008-08-14T12:00:00Z,28.8667,-90.4833,10.0,2.96,313.0,,'11111222,11111222,99999999' 
WAVCIS,ioos:station:WAVCIS:CSI06:1,2008-08-14T13:00:00Z,28.8667,-90.4833,10.0,2.097,304.0,,'11111222,11111222,99999999' 
WAVCIS,ioos:station:WAVCIS:CSI06:1,2008-08-14T14:00:00Z,28.8667,-90.4833,10.0,2.662,299.0,,'11111222,11111222,99999999' 
WAVCIS,ioos:station:WAVCIS:CSI06:1,2008-08-14T15:00:00Z,28.8667,-90.4833,10.0,3.563,314.0,,'11111222,11111222,99999999' 
WAVCIS,ioos:station:WAVCIS:CSI06:1,2008-08-14T16:00:00Z,28.8667,-90.4833,10.0,1.484,90.0,,'11111222,11111222,99999999' 
WAVCIS,ioos:station:WAVCIS:CSI06:1,2008-08-14T17:00:00Z,28.8667,-90.4833,10.0,4.144,288.0,,'11111222,11111222,99999999' 
WAVCIS,ioos:station:WAVCIS:CSI06:1,2008-08-14T18:00:00Z,28.8667,-90.4833,10.0,4.375,292.0,,'11111222,11111222,99999999' 
WAVCIS,ioos:station:WAVCIS:CSI06:1,2008-08-14T19:00:00Z,28.8667,-90.4833,10.0,10.25,289.0,,'11111222,11111222,99999999' 
WAVCIS,ioos:station:WAVCIS:CSI06:1,2008-08-14T20:00:00Z,28.8667,-90.4833,10.0,9.73,299.0,,'11111222,11111222,99999999' 
WAVCIS,ioos:station:WAVCIS:CSI06:1,2008-08-14T21:00:00Z,28.8667,-90.4833,10.0,9.01,300.0,,'11111222,11111222,99999999' 
WAVCIS,ioos:station:WAVCIS:CSI06:1,2008-08-14T22:00:00Z,28.8667,-90.4833,10.0,7.5,302.0,,'11111222,11111222,99999999' 
WAVCIS,ioos:station:WAVCIS:CSI06:1,2008-08-14T23:00:00Z,28.8667,-90.4833,10.0,6.143,303.0,,'11111222,11111222,99999999' 
WAVCIS,ioos:station:WAVCIS:CSI06:1,2008-08-15T00:00:00Z,28.8667,-90.4833,10.0,5.939,307.0,,'11111222,11111222,99999999' 